Weather History for Fort Worth, TX

Change the Weather History Date:

Friday, April 12, 2013

  Actual Average Record
Temperature  
Mean Temperature 59 °F -  
Max Temperature 73 °F 72 °F 84 °F (2006)
Min Temperature 46 °F 51 °F 33 °F (1997)
Degree Days  
Heating Degree Days 6    
Growing Degree Days 9 (Base 50)    
Moisture  
Dew Point 43 °F    
Average Humidity 63    
Maximum Humidity 83    
Minimum Humidity 37    
Precipitation  
Precipitation 0.00 in - - ()
Sea Level Pressure  
Sea Level Pressure 29.91 in    
Wind  
Wind Speed 6 mph (SSE)    
Max Wind Speed 15 mph    
Max Gust Speed -    
Visibility 10 miles    
Events      
Averages and records for this station are not official NWS values.
T = Trace of Precipitation, MM = Missing Value Source: NWS Daily Summary

Daily Weather History Graph

Daily Weather History Graph

Search for Another Location

Airport:

Trip Planner

Search our weather history database for the weather conditions in past years. The results will help you decide how hot, cold, wet, or windy it might be!

Date:

Astronomy

Apr. 12, 2013 Rise Set
Actual Time 7:03 AM CDT 7:57 PM CDT
Civil Twilight 6:37 AM CDT 8:22 PM CDT
Nautical Twilight 6:08 AM CDT 8:52 PM CDT
Astronomical Twilight 5:37 AM CDT 9:23 PM CDT
Moon 8:20 AM CDT (4/12) 10:21 PM CDT (4/12)
Length of Visible Light 13h 45m
Length of Day
12h 54m
Waxing Crescent, 5% of the Moon is Illuminated
Apr 12
Waxing Crescent
Apr 18
First Quarter
Apr 25
Full
May 2
Last Quarter
May 9
New

Hourly Weather History & Observations

Time (CDT) Temp. Windchill Dew Point Humidity Pressure Visibility Wind Dir Wind Speed Gust Speed Precip Events Conditions
12:53 AM 48.0 °F - 39.9 °F 74% 29.86 in 10.0 mi SSW 5.8 mph - N/A   Clear
1:53 AM 48.0 °F - 39.0 °F 71% 29.86 in 10.0 mi SSW 5.8 mph - N/A   Clear
2:53 AM 46.9 °F - 39.0 °F 74% 29.86 in 10.0 mi South 5.8 mph - N/A   Clear
3:53 AM 46.9 °F - 39.9 °F 77% 29.87 in 10.0 mi SSW 4.6 mph - N/A   Clear
4:53 AM 46.0 °F 43.9 °F 39.0 °F 76% 29.88 in 10.0 mi South 4.6 mph - N/A   Clear
5:53 AM 46.9 °F - 39.9 °F 77% 29.89 in 10.0 mi South 3.5 mph - N/A   Clear
6:53 AM 46.9 °F - 39.0 °F 74% 29.91 in 10.0 mi Calm Calm - N/A   Clear
7:53 AM 46.9 °F - 42.1 °F 83% 29.95 in 10.0 mi North 4.6 mph - N/A   Clear
8:53 AM 54.0 °F - 44.1 °F 69% 29.97 in 10.0 mi NW 3.5 mph - N/A   Clear
9:53 AM 59.0 °F - 44.1 °F 58% 29.98 in 10.0 mi North 3.5 mph - N/A   Clear
10:53 AM 63.0 °F - 45.0 °F 52% 29.99 in 10.0 mi NNW 4.6 mph - N/A   Clear
11:53 AM 66.0 °F - 46.0 °F 48% 29.98 in 10.0 mi NE 5.8 mph - N/A   Clear
12:53 PM - - - N/A% 29.98 in - North - - N/A   Unknown
1:53 PM - - - N/A% 29.95 in - North - - N/A   Unknown
2:53 PM - - - N/A% 29.93 in - North - - N/A   Unknown
3:53 PM - - - N/A% 29.90 in - North - - N/A   Unknown
4:53 PM - - - N/A% 29.88 in - North - - N/A   Unknown
5:53 PM - - - N/A% 29.87 in - North - - N/A   Unknown
6:53 PM 72.0 °F - 44.1 °F 37% 29.85 in 10.0 mi SE 15.0 mph - N/A   Clear
7:53 PM 66.9 °F - 43.0 °F 42% 29.86 in 10.0 mi SSE 9.2 mph - N/A   Clear
8:53 PM 66.0 °F - 45.0 °F 47% 29.88 in 10.0 mi SE 9.2 mph - N/A   Clear
9:53 PM 64.0 °F - 46.0 °F 52% 29.89 in 10.0 mi ESE 8.1 mph - N/A   Clear
10:53 PM 62.1 °F - 46.9 °F 58% 29.91 in 10.0 mi ESE 5.8 mph - N/A   Clear
11:53 PM 60.1 °F - 46.0 °F 60% 29.92 in 10.0 mi ESE 5.8 mph - N/A   Clear